CZ-6A DEB, 54454

Orbit data source: Space-Track

CZ-6A DEB, 54454 is space debris in SSO originally from a launch on Fri, 11 Nov 2022 UTC launched from the Taiyaun Space Center, China (TSC). Debris objects in space refer to the collection of defunct objects orbiting the Earth. Examples of debris include non-operational satellites, rocket bodies, and fragments generated from explosions, collisions, or faulty payload assembly.

Loading next visibility...
Identifier
54454, 2022-151GE
Orbit
SSO
Country
Flag of CNCN / PRC
Related business
Manufacturer
SAST
Mission
Spacecraft
Bus & Motor
Unknown
Mass
Unknown
Launch date (UTC)
2022-11-11 (4 years ago)
Launch vehicle
Unknown
Launch site
Taiyaun Space Center, China (TSC)
Object type
Payload
Rocket body
Debris
Shape & HBR
Unknown shape, 0.1 m
Radar Cross Section
Medium (>0.1 m² and <1 m²)

Expand to show TLE details & history
Last TLE update: 2 days ago

TLE from 2 days ago
0 CZ-6A DEB
1 54454U 22151GE  26171.23924323  .00001442  00000-0  12755-2 0  9991
2 54454  98.8399  89.2236 0228337 198.7270 160.5378 13.75391073179971
Epoch: 2026-06-20T05:44Z
TLE epoch observation values (Epoch: 2026-06-20T05:44:30.615Z)
Latitude
-0.00003°
Longitude
94.63932°
Altitude
1,141.992 km
Speed
7.203 km/s
True Right ascension
05h 56m 53s
True Declination
0° 00' 00"
Sunlit
Object was in daylight at epoch
Visualization orbit readout
Latitude
Unknown
Longitude
Unknown
Altitude
Unknown
Speed
Unknown
Apparent Right ascension
Unknown
Apparent Declination
Unknown
Sunlit
N/A
Visualization observer readout
Local Sidereal Time
21:31:45
Azimuth
Unknown
Elevation
Unknown
Doppler factor
Unknown
Orbital elements
Apogee altitude
1,145.459 km
Perigee altitude
809.546 km
Semi-major axis
7,355.639 km
Eccentricity
0.02283
Inclination
98.8399°
RAAN
89.2236°
Arg. of periapsis
198.727°
True anomaly
161.38669°
Mean anomaly
160.5378°
Eccentric anomaly
160.9645°
Mean motion
3.44043 °/min
Orbital period
104.64 mins
BSTAR
0.0012755
Loading maneuver chart data...
Computing Atmospheric mass density...
Loading historical data...
Loading historical data...
Loading historical data...
Loading historical data...
Loading historical data...
Loading historical data...
Loading historical data...

Documentation

Showing up to 5 results
|